Погода в Газанджыке

Погода в Газанджыке : погода сейчас, прогноз погоды и архив. Всё, что Вы хотите узнать о погоде в Газанджыке!

Поиск расширенной информации на нашем сайте:

Другие новости

Новости СМИ2

Главная страница сайта

Новости сайта

03.07.2017

Напоминаем, что на нашем специализированном сайте Метеоцентр.Азия вы можете получить высокодетализированные автоматические прогнозы погоды по пунктам России, СНГ и мира в авиационном формате (включающие направление и скорость ветра, видимость, явления погоды, количество и форму облачности, нижнюю и верхнюю границу облачности).


Погода в Газанджыке - сегодня

Время (UTC), дата Ветер
(°,м/с) 
Видим.   Явления Облачность Т
(°С)
Тd
(°С)
f(%) Тe
(°С)
Pmin
(гПа)
dP
(гПа)
Po
(мм)
O2
(г/м3)
Тmin Tmax R s Состояние
почвы
00 24.05.18 070 (В) 10 км    ясно 
+21.4 +4.5 33 +21  1015.8  -0.5  759  283           
03 24.05.18 090 (В) 20000 м    ясно 
+23.8 +1.5 23 +24  1015.7  -0.1  751  278           
06 24.05.18 090 (В) 20000 м    ясно 
+29 -1.4 14 +29  1015.7  0.1  759  277  +19.7         
09 24.05.18 080 (В) 20000 м    ясно 
+33.2 +3.2 15 +33  1013.7  -2  757  272           
12 24.05.18 090 (В) 20000 м    ясно 
+35.2 +2.5 13 +35  1011.1  -2.5  755  269           
15 24.05.18 070 (В) 20000 м    1/0 верхняя 
[Ci fib]
+31.1 +5.5 20 +31  1010.2  -1  755  272    +36       
18 24.05.18 110 (В) 10 км    ясно 
+27.9 -0.2 16 +28  1010.5  0.3  755  276    +6       
21 24.05.18 080 (В) 10 км    ясно 
+24.9 +1.1 21 +25  1009.6  -0.5  754  278           
00 25.05.18 110 (В) 10 км    ясно 
+20.7 +1.9 29 +21  1009.1  -0.6  754  282           
03 25.05.18 090 (В) 10 км    ясно 
+23.5 +3.6 27 +24  1009.6  0.5  751  278           
06 25.05.18 100 (В) 20000 м    ясно 
+30.9 +1.7 15 +31  1009.6  0.1  754  273  +19.5         
09 25.05.18 100 (В) 20000 м    ясно 
+36.5 -2.7 8 +37  1007.5  -2  753  268           
12 25.05.18 070 (В) 20000 м    ясно 
+37.8 -5 6 +38  1006.3  -1.2  752  267           
15 25.05.18 070 (В) 20000 м    3/0 верхняя 
[Ci fib]
+34.6 +0 11 +35  1005.7  -0.6  751  269    +38.8       
18 25.05.18 100 (В) 10 км    ясно 
+26.4 +0.4 18 +26  1005.9  0.1  752  276    +38.8       
21 25.05.18 070 (В) 10 км    ясно 
+20.4 +5.1 37 +20  1005.2  -0.8  751  281           
00 26.05.18 тихо ()   10 км    8/0 верхняя 
[Cs]
+21.3 +8.4 44 +21  1004.8  -0.4  751  279           
03 26.05.18 110 (В) 20000 м    3/0 верхняя 
[Ci fib]
+22.8 +5.6 33 +23  1006  1.2  752  279           
06 26.05.18 010 (С) 20000 м    3/0 средняя 
[Ac trans]
+30.6 +9.5 27 +31  1006.1  0.2  752  271  +17.6         
09 26.05.18 260 (З) 20000 м    ясно 
+36.4 +8.2 18 +36  1004.9  -1.1  751  266           
12 26.05.18 270 (З) 20000 м    3/0 средняя 
[Ac As]
+36.4 +8.9 19 +36  1004.4  -0.5  750  265           
15 26.05.18 270 (З) 10 км    3/0 средняя 
[Ac As]
+32.8 +9.2 23 +33  1005.5  751  269    +37.8       
18 26.05.18 260 (З) 10 км    8/0 верхняя 
[Cs]
+29 +11.8 35 +33  1007.3  1.8  753  272    +37.8       
21 26.05.18 280 (З) 10 км    4/0 верхняя 
[Ci fib]
+26.5 +11 38 +29  1008.3  753  275           
00 27.05.18 250 (З) 10 км    ясно 
+25.8 +11.2 40 +28  1009.3  754  276           
Время (UTC), дата Ветер
(°,м/с) 
Видим.   Явления Облачность Т
(°С)
Тd
(°С)
f(%) Тe
(°С)
Pmin
(гПа)
dP
(гПа)
Po
(мм)
O2
(г/м3)
Тmin Tmax R s Состояние
почвы

Для получения пояснительной информации подведите курсор к названию столбца.

ПОГОДА в Газанджыке - архив

Всё, что Вы хотите узнать о погоде в Газанджыке - удобно и подробно!

Выберите нужную дату (начиная с 1 января 2015* года) и нажмите кнопку "Найти".
Будут отображены архивные сводки погоды по пункту Газанджык, начиная с указанной даты.


Отображать данные в формате CSV (для использования в таблицах Excel)


Внимание! Наш архив погоды предназначен исключительно для личного некоммерческого использования в познавательных целях. Если Вам необходимы официальные справки о состоянии погоды (для производственных, юридических, коммерческих и т.п. целей), обращайтесь в органы Росгидромета.

*Примечание: данная дата относится к архиву по метеостанциям СССР (Россия, СНГ, Балтия).
Архив по метеостанциям Зарубежной Европы и Азии (кроме Китая) хранится 10 дней, по другим регионам земного шара (Китай, Африка, Америка, Австралия, Океания) - 1 день.

Газанджык - район местоположения метеостанции


Название, широта, долгота, высота метеостанции:
Газанджык 39.2°ш. 55.5°д. 31 м над ур. моря [Туркменистан]

Дополнительная информация

В oтличие oт бoльшинства пoгoдных сайтoв мы публикуем пoдрoбную метеoинфoрмацию в детальнoм прoфессиoнальнoм фoрмате.

Характеристики температуры и влажнoсти вoздуха измеряются на высoте 2 м в тени вдали oт зданий и деревьев.
Скoрoсть ветра измеряется на высoте 10 м (на урoвне рoста челoвека скoрoсть ветра ниже в 1.5-2 раза). Если метеoстанция нахoдится в гoрoде или в лесу, тo скoрoсть ветра занижена на 2-4 м/с пo сравнению с oткрытым местoм. Скoрoсть ветра над акватoриями крупных рек и oзёр, а также на вершинах хoлмoв на 2-5 м/с выше, чем в oбычных услoвиях.
Атмoсфернoе давление в разных тoчках местнoсти мoжет значительнo oтличаться oт давления на метеoстанции, в зависимoсти oт услoвий рельефа (при пoдъёме на 10 м давление пoнижается примернo на 1 мм рт.ст.).